Weather in Swansea

Australia     42°07′22″S   148°04′27″E
temp.,
°C
wind,
m/s
gust,
m/s
humid.,
%
clouds,
%
prec.,
mm/h
press.,
hPa
HPBL,
m
28 february, sun
sun2823:00+12sse1288100 0.0 1014194
02:00+12sse1188100 0.0 101456
05:00+10w1197100 0.0 101323
08:00+12wnw118751 0.0 101343
11:00+19se225735 0.0 1013965
14:00+20se435826 0.0 1011718
17:00+19ese445954 0.0 1010920
20:00+12se128956 0.0 101033
1 march, mon
mon123:00+11w119563 0.0 101122
02:00+11wnw119469 0.0 100922
05:00+11wnw229482 0.0 100860
08:00+14nw3108194 0.0 1007553
11:00+19w355397 0.0 10061256
14:00+20wsw575032 0.6 10031549
17:00+12wsw7157748 5.8 10021096
20:00+10w716590 0.0 10041395
2 march, tue
tue223:00+9wsw516664 0.1 10071670
02:00+8wsw8186043 0.0 10071290
05:00+7wsw6146521 0.0 10091089
08:00+9sw5126311 0.0 10121317
11:00+12sw6104923 0.0 10131569
14:00+15sw583627 0.0 10131991
17:00+14sw483916 0.0 10131849
20:00+9wsw285933 0.0 1015335
3 march, wed
wed323:00+6w276852 0.0 1017294
02:00+6wsw3107367 0.0 1016536
05:00+6w397533 0.0 1016375
08:00+8w4107166 0.0 1017704
11:00+13wsw484979 0.0 10171386
14:00+16wsw474269 0.0 10151654
17:00+17wsw584344 0.0 10141682
20:00+12w295999 0.0 1014842
4 march, thu
thu423:00+10wnw3117185 0.0 1015592
02:00+11wnw5146832 0.0 1013649
05:00+14w7166064 0.0 1011693
08:00+14w61663100 0.0 1011718
11:00+19w61352100 0.0 10101548
14:00+19w6135393 0.0 10091670
17:00+18wsw6135797 0.1 10081950
20:00+13wsw411658 0.1 10091206